星链-3125 (STARLINK-3125 )

导读

STARLINK-3125是美国SpaceX星链星座的成员,于2021年11月13日发射入轨,星链系统依托低轨卫星星座为全球提供高速互联网服务,这款卫星遵循星链第二代技术标准部署,旨在补充完善全球覆盖的卫星通信网络,满足偏远地区、移动场景等无地面网络覆盖区域的联网需求,也在应急通信等场景发挥作用。

基本信息
目录编号:
49451
目录名称:
STARLINK-3125
国际标识:
2021-104AV
轨道中心:
EARTH
卫星名称:
星链-3125
卫星全名:
星链-3125 (STARLINK-3125 )
卫星状态:
在轨 (已飞行1756 天)
发射日期:
2021-11-13 UTC
国别 :
美国 (US)
星等 :
--
轨道信息
数据来源 国际轨道数据 AOE轨道数据
星历时间 2026-09-04T00:06:22+0800
13小时前
查看轨道信息
2026-09-03T23:00:00+0800
14小时前
查看轨道信息
半长轴 6843.38km 6843.282km
偏心率 0.000131 0.0001277
轨道倾角 53.159° 53.161°
近地点辐角 89.378° 98.453°
升交点赤经 130.503° 130.720°
平近点角 270.737° 7.144°
近地点 464.346km 464.271km
远地点 466.14km 466.019km
周期 93.900分钟 93.898分钟
每日圈数 15.335462 15.335791
详细信息
固有亮度:
5
最大亮度:
2.5
卫星平台:
Starlink v1.5
覆盖范围:
全球
运营商:
太空探索技术公司
运营商所在国:
美国
制造商(研发单位):
太空探索技术公司
制造商所在国:
美国
使用方式:
暂无
卫星简介
星链(Starlink)计划是由太空探索技术公司(SpaceX)提出的一个巨型低轨卫星互联网星座项目,计划在2019年至2024年间在太空搭建由约1.2万颗卫星组成的“星链”网络,其中1584颗将部署在地球上空550千米处的近地轨道,并从2020年开始工作。该卫星仍在工作。
2D轨道图
3D轨道图
轨道高度分析图
轨道倾角分析图
轨道综合分析图
查看轨道综合分析图
交会数据列表
事件ID 空间交会对象 最接近时刻(TCA) 交会距离 交会风险概率(CRP) 交会风险指数(CRI) 操作
CDM_260827-193104-945106-878721
2026-08-27T
19:31:07+0000
1.593 km
极远距离
4.981238E-6 低风险 0.49
CDM_260904-061804-945105-825021
2026-09-04T
06:18:40+0000
1.929 km
极远距离
2.522878E-6 低风险 0.43
CDM_260905-001404-945106-002022
2026-09-05T
00:14:02+0000
2.644 km
极远距离
1.416771E-6 低风险 0.38
CDM_260905-121504-945106-812321
2026-09-05T
12:15:21+0000
2.742 km
极远距离
1.264063E-6 低风险 0.37
CDM_260827-224404-945106-867122
2026-08-27T
22:44:47+0000
2.635 km
极远距离
1.142599E-6 低风险 0.36
CDM_260831-000004-945106-984221
2026-08-31T
00:00:23+0000
2.939 km
极远距离
9.597209E-7 极低风险 0.35
CDM_260905-114504-945106-544821
2026-09-05T
11:45:49+0000
2.905 km
极远距离
8.662898E-7 极低风险 0.34
CDM_260827-215104-945106-897221
2026-08-27T
21:51:36+0000
2.404 km
极远距离
6.962287E-7 极低风险 0.32
CDM_260905-043004-945106-818421
2026-09-05T
04:30:20+0000
2.710 km
极远距离
6.08589E-7 极低风险 0.31